| time (UTC) | temp F | wind direction | speed MPH | gust MPH | rain 1hr in | rain 24hr in | rain mn in | humidity % | barometer mb |
| 20260509235005 | 67 | 1 | 2.0 | 5.0 | 0.00 | 0.00 | 0.00 | 63 | 1018.3 |
| 20260509234505 | 67 | 338 | 3.0 | 5.0 | 0.00 | 0.00 | 0.00 | 58 | 1018.3 |
| 20260509234005 | 67 | 11 | 2.0 | 6.0 | 0.00 | 0.00 | 0.00 | 63 | 1018.4 |
| 20260509233506 | 67 | 314 | 2.0 | 6.0 | 0.00 | 0.00 | 0.00 | 56 | 1018.6 |
| 20260509232506 | 67 | 1 | 2.0 | 6.0 | 0.00 | 0.00 | 0.00 | 58 | 1018.7 |
| 20260509232006 | 67 | 344 | 3.0 | 7.0 | 0.00 | 0.00 | 0.00 | 56 | 1018.7 |
| 20260509231506 | 67 | 286 | 2.0 | 7.0 | 0.00 | 0.00 | 0.00 | 60 | 1018.8 |
| 20260509231004 | 67 | 341 | 3.0 | 6.0 | 0.00 | 0.00 | 0.00 | 57 | 1019.0 |
| 20260509230505 | 67 | 351 | 3.0 | 6.0 | 0.00 | 0.00 | 0.00 | 56 | 1019.0 |
| 20260509230006 | 67 | 249 | 3.0 | 7.0 | 0.00 | 0.00 | 0.00 | 58 | 1019.0 |
| 20260509225006 | 66 | 215 | 2.0 | 11.0 | 0.00 | 0.00 | 0.00 | 57 | 1019.2 |
| 20260509224006 | 67 | 228 | 3.0 | 7.0 | 0.00 | 0.00 | 0.00 | 58 | 1019.4 |
| 20260509223505 | 67 | 303 | 3.0 | 7.0 | 0.00 | 0.00 | 0.00 | 57 | 1019.5 |
| 20260509223007 | 66 | 321 | 2.0 | 5.0 | 0.00 | 0.00 | 0.00 | 59 | 1019.5 |
| 20260509222006 | 65 | 1 | 4.0 | 8.0 | 0.00 | 0.00 | 0.00 | 59 | 1019.7 |
| 20260509221505 | 65 | 4 | 3.0 | 7.0 | 0.00 | 0.00 | 0.00 | 59 | 1019.7 |
| 20260509221005 | 65 | 345 | 4.0 | 7.0 | 0.00 | 0.00 | 0.00 | 59 | 1019.8 |
| 20260509220505 | 65 | 296 | 3.0 | 6.0 | 0.00 | 0.00 | 0.00 | 60 | 1019.8 |
| 20260509220010 | 65 | 35 | 3.0 | 6.0 | 0.00 | 0.00 | 0.00 | 59 | 1019.8 |
| 20260509215005 | 65 | 290 | 2.0 | 7.0 | 0.00 | 0.00 | 0.00 | 60 | 1019.7 |
| 20260509214506 | 65 | 11 | 3.0 | 7.0 | 0.00 | 0.00 | 0.00 | 59 | 1019.8 |
| 20260509213505 | 65 | 9 | 4.0 | 7.0 | 0.00 | 0.00 | 0.00 | 59 | 1019.9 |
| 20260509213006 | 66 | 283 | 3.0 | 8.0 | 0.00 | 0.00 | 0.00 | 60 | 1020.0 |
| 20260509212505 | 66 | 314 | 3.0 | 6.0 | 0.00 | 0.00 | 0.00 | 63 | 1020.1 |
| 20260509212005 | 65 | 1 | 3.0 | 8.0 | 0.00 | 0.00 | 0.00 | 61 | 1020.1 |
| 20260509211505 | 65 | 296 | 4.0 | 8.0 | 0.00 | 0.00 | 0.00 | 64 | 1020.2 |
| 20260509211006 | 64 | 221 | 3.0 | 10.0 | 0.00 | 0.00 | 0.00 | 63 | 1020.3 |
| 20260509210504 | 64 | 284 | 4.0 | 10.0 | 0.00 | 0.00 | 0.00 | 64 | 1020.3 |
| 20260509210006 | 63 | 117 | 5.0 | 9.0 | 0.00 | 0.00 | 0.00 | 63 | 1020.1 |
| 20260509205506 | 64 | 226 | 4.0 | 7.0 | 0.00 | 0.00 | 0.00 | 61 | 1020.2 |
| 20260509205005 | 64 | 241 | 2.0 | 8.0 | 0.00 | 0.00 | 0.00 | 63 | 1020.0 |
| 20260509204506 | 65 | 283 | 3.0 | 8.0 | 0.00 | 0.00 | 0.00 | 60 | 1020.0 |
| 20260509204006 | 65 | 323 | 4.0 | 6.0 | 0.00 | 0.00 | 0.00 | 61 | 1020.1 |
| 20260509203006 | 65 | 46 | 3.0 | 9.0 | 0.00 | 0.00 | 0.00 | 62 | 1020.1 |
| 20260509202505 | 65 | 244 | 5.0 | 9.0 | 0.00 | 0.00 | 0.00 | 61 | 1020.2 |
| 20260509202006 | 65 | 286 | 3.0 | 10.0 | 0.00 | 0.00 | 0.00 | 60 | 1020.2 |
| 20260509201506 | 65 | 343 | 4.0 | 9.0 | 0.00 | 0.00 | 0.00 | 61 | 1020.2 |
| 20260509201005 | 66 | 249 | 4.0 | 9.0 | 0.00 | 0.00 | 0.00 | 60 | 1020.4 |
| 20260509200505 | 66 | 23 | 2.0 | 7.0 | 0.00 | 0.00 | 0.00 | 66 | 1020.3 |
| 20260509200006 | 66 | 316 | 4.0 | 7.0 | 0.00 | 0.00 | 0.00 | 58 | 1020.3 |
| 20260509195505 | 66 | 89 | 2.0 | 5.0 | 0.00 | 0.00 | 0.00 | 56 | 1020.3 |
| 20260509194504 | 65 | 324 | 2.0 | 4.0 | 0.00 | 0.00 | 0.00 | 56 | 1020.5 |
| 20260509194005 | 65 | 1 | 1.0 | 6.0 | 0.00 | 0.00 | 0.00 | 58 | 1020.6 |
| 20260509193505 | 65 | 1 | 3.0 | 7.0 | 0.00 | 0.00 | 0.00 | 57 | 1020.7 |
| 20260509192006 | 65 | 314 | 2.0 | 4.0 | 0.00 | 0.00 | 0.00 | 58 | 1020.7 |
| 20260509191506 | 65 | 1 | 1.0 | 5.0 | 0.00 | 0.00 | 0.00 | 61 | 1020.8 |
| 20260509191005 | 65 | 35 | 3.0 | 6.0 | 0.00 | 0.00 | 0.00 | 60 | 1020.8 |
| 20260509190505 | 65 | 331 | 3.0 | 4.0 | 0.00 | 0.00 | 0.00 | 59 | 1020.9 |
| 20260509185505 | 64 | 28 | 3.0 | 6.0 | 0.00 | 0.00 | 0.00 | 59 | 1021.0 |
| 20260509185005 | 64 | 1 | 3.0 | 4.0 | 0.00 | 0.00 | 0.00 | 60 | 1021.0 |
| 20260509184505 | 64 | 347 | 2.0 | 4.0 | 0.00 | 0.00 | 0.00 | 64 | 1020.9 |
| 20260509184004 | 64 | 350 | 2.0 | 4.0 | 0.00 | 0.00 | 0.00 | 63 | 1020.9 |
| 20260509183504 | 64 | 1 | 2.0 | 4.0 | 0.00 | 0.00 | 0.00 | 64 | 1020.9 |
| 20260509183007 | 63 | 89 | 1.0 | 4.0 | 0.00 | 0.00 | 0.00 | 63 | 1021.0 |
| 20260509182505 | 63 | 41 | 2.0 | 6.0 | 0.00 | 0.00 | 0.00 | 62 | 1021.0 |
| 20260509182005 | 63 | 201 | 3.0 | 6.0 | 0.00 | 0.00 | 0.00 | 61 | 1021.2 |
| 20260509181506 | 62 | 349 | 2.0 | 4.0 | 0.00 | 0.00 | 0.00 | 62 | 1021.1 |
| 20260509181005 | 63 | 40 | 3.0 | 5.0 | 0.00 | 0.00 | 0.00 | 64 | 1021.2 |
| 20260509180505 | 62 | 322 | 2.0 | 5.0 | 0.00 | 0.00 | 0.00 | 65 | 1021.1 |
| 20260509180005 | 62 | 296 | 2.0 | 4.0 | 0.00 | 0.00 | 0.00 | 64 | 1021.2 |
| 20260509175505 | 62 | 135 | 2.0 | 5.0 | 0.00 | 0.00 | 0.00 | 66 | 1021.1 |
| 20260509175006 | 62 | 37 | 2.0 | 3.0 | 0.00 | 0.00 | 0.00 | 62 | 1021.2 |
| 20260509174506 | 62 | 1 | 1.0 | 3.0 | 0.00 | 0.00 | 0.00 | 66 | 1021.2 |
| 20260509174005 | 62 | 15 | 1.0 | 6.0 | 0.00 | 0.00 | 0.00 | 65 | 1021.3 |
| 20260509173505 | 61 | 46 | 2.0 | 7.0 | 0.00 | 0.00 | 0.00 | 66 | 1021.3 |
| 20260509173007 | 61 | 308 | 3.0 | 7.0 | 0.00 | 0.00 | 0.00 | 65 | 1021.5 |
| 20260509172504 | 61 | 338 | 2.0 | 4.0 | 0.00 | 0.00 | 0.00 | 66 | 1021.5 |
| 20260509172005 | 61 | 206 | 2.0 | 4.0 | 0.00 | 0.00 | 0.00 | 66 | 1021.5 |
| 20260509171506 | 61 | 63 | 1.0 | 4.0 | 0.00 | 0.00 | 0.00 | 68 | 1021.6 |
| 20260509171006 | 60 | 23 | 2.0 | 4.0 | 0.00 | 0.00 | 0.00 | 67 | 1021.7 |
| 20260509170504 | 60 | 32 | 2.0 | 4.0 | 0.00 | 0.00 | 0.00 | 70 | 1021.8 |
| 20260509170006 | 60 | 1 | 2.0 | 4.0 | 0.00 | 0.00 | 0.00 | 70 | 1021.9 |
| 20260509165506 | 60 | 178 | 2.0 | 4.0 | 0.00 | 0.00 | 0.00 | 70 | 1021.8 |
| 20260509165005 | 60 | 35 | 2.0 | 3.0 | 0.00 | 0.00 | 0.00 | 70 | 1021.7 |
| 20260509164006 | 59 | 1 | 2.0 | 5.0 | 0.00 | 0.00 | 0.00 | 69 | 1022.0 |
| 20260509163008 | 59 | 32 | 2.0 | 3.0 | 0.00 | 0.00 | 0.00 | 71 | 1022.1 |
| 20260509162504 | 59 | 18 | 1.0 | 4.0 | 0.00 | 0.00 | 0.00 | 73 | 1022.1 |
| 20260509161506 | 59 | 32 | 2.0 | 3.0 | 0.00 | 0.00 | 0.00 | 73 | 1022.3 |
| 20260509161006 | 59 | 300 | 1.0 | 4.0 | 0.00 | 0.00 | 0.00 | 73 | 1022.3 |
| 20260509160006 | 58 | 296 | 2.0 | 5.0 | 0.00 | 0.00 | 0.00 | 73 | 1022.4 |
| 20260509155505 | 58 | 347 | 1.0 | 3.0 | 0.00 | 0.00 | 0.00 | 71 | 1022.3 |
| 20260509155005 | 58 | 331 | 1.0 | 3.0 | 0.00 | 0.00 | 0.00 | 76 | 1022.3 |
| 20260509154506 | 57 | 279 | 1.0 | 3.0 | 0.00 | 0.00 | 0.00 | 76 | 1022.3 |
| 20260509153505 | 56 | 28 | 2.0 | 4.0 | 0.00 | 0.00 | 0.00 | 80 | 1022.2 |
| 20260509153006 | 56 | 331 | 1.0 | 4.0 | 0.00 | 0.00 | 0.00 | 79 | 1022.3 |
| 20260509152505 | 55 | 340 | 2.0 | 4.0 | 0.00 | 0.00 | 0.00 | 80 | 1022.5 |
| 20260509151505 | 54 | 296 | 1.0 | 2.0 | 0.00 | 0.00 | 0.00 | 81 | 1022.4 |
| 20260509151006 | 54 | 340 | 1.0 | 2.0 | 0.00 | 0.00 | 0.00 | 82 | 1022.5 |
| 20260509150505 | 54 | 269 | 1.0 | 2.0 | 0.00 | 0.00 | 0.00 | 82 | 1022.6 |
| 20260509150006 | 54 | 324 | 1.0 | 2.0 | 0.00 | 0.00 | 0.00 | 82 | 1022.6 |
| 20260509145005 | 53 | 324 | 1.0 | 2.0 | 0.00 | 0.00 | 0.00 | 83 | 1022.7 |
| 20260509144505 | 53 | 1 | 1.0 | 2.0 | 0.00 | 0.00 | 0.00 | 84 | 1022.7 |
| 20260509144005 | 53 | 324 | 1.0 | 2.0 | 0.00 | 0.00 | 0.00 | 84 | 1022.7 |
| 20260509143505 | 53 | 178 | 1.0 | 2.0 | 0.00 | 0.00 | 0.00 | 84 | 1022.7 |
| 20260509143006 | 53 | 324 | 1.0 | 2.0 | 0.00 | 0.00 | 0.00 | 84 | 1022.7 |
| 20260509142505 | 53 | 1 | 1.0 | 2.0 | 0.00 | 0.00 | 0.00 | 84 | 1022.7 |
| 20260509141505 | 52 | 331 | 1.0 | 2.0 | 0.00 | 0.00 | 0.00 | 85 | 1022.9 |
| 20260509140505 | 52 | 314 | 1.0 | 2.0 | 0.00 | 0.00 | 0.00 | 85 | 1023.0 |
| 20260509140006 | 52 | 314 | 1.0 | 2.0 | 0.00 | 0.00 | 0.00 | 87 | 1023.0 |
| 20260509135505 | 52 | 308 | 1.0 | 2.0 | 0.00 | 0.00 | 0.00 | 88 | 1022.9 |
| 20260509135005 | 52 | 178 | 1.0 | 2.0 | 0.00 | 0.00 | 0.00 | 88 | 1023.0 |
| 20260509134505 | 52 | 46 | 1.0 | 2.0 | 0.00 | 0.00 | 0.00 | 88 | 1023.0 |
| 20260509134005 | 51 | 347 | 1.0 | 2.0 | 0.00 | 0.00 | 0.00 | 87 | 1022.9 |
| 20260509133505 | 51 | 344 | 1.0 | 2.0 | 0.00 | 0.00 | 0.00 | 87 | 1022.9 |
| 20260509133005 | 51 | 331 | 1.0 | 2.0 | 0.00 | 0.00 | 0.00 | 88 | 1022.9 |
| 20260509132505 | 51 | 340 | 1.0 | 2.0 | 0.00 | 0.00 | 0.00 | 88 | 1022.8 |
| 20260509131505 | 51 | 1 | 1.0 | 2.0 | 0.00 | 0.00 | 0.00 | 88 | 1022.8 |
| 20260509130504 | 51 | 331 | 0.0 | 1.0 | 0.00 | 0.00 | 0.00 | 88 | 1022.8 |
| 20260509130006 | 51 | 269 | 1.0 | 1.0 | 0.00 | 0.00 | 0.00 | 88 | 1022.7 |
| 20260509125505 | 51 | 46 | 0.0 | 1.0 | 0.00 | 0.00 | 0.00 | 88 | 1022.8 |
| 20260509125005 | 51 | 1 | 0.0 | 2.0 | 0.00 | 0.00 | 0.00 | 87 | 1022.8 |
| 20260509124506 | 51 | 1 | 1.0 | 2.0 | 0.00 | 0.00 | 0.00 | 87 | 1022.8 |
| 20260509124005 | 51 | 314 | 1.0 | 2.0 | 0.00 | 0.00 | 0.00 | 88 | 1022.9 |
| 20260509123505 | 51 | 46 | 1.0 | 2.0 | 0.00 | 0.00 | 0.00 | 88 | 1022.9 |
| 20260509123006 | 51 | 46 | 1.0 | 2.0 | 0.00 | 0.00 | 0.00 | 88 | 1022.9 |
| 20260509122504 | 51 | 28 | 1.0 | 2.0 | 0.00 | 0.00 | 0.00 | 87 | 1022.9 |
| 20260509122005 | 51 | 46 | 1.0 | 2.0 | 0.00 | 0.00 | 0.00 | 87 | 1022.9 |
| 20260509121505 | 51 | 314 | 1.0 | 2.0 | 0.00 | 0.00 | 0.00 | 87 | 1022.9 |
| 20260509121005 | 51 | 46 | 0.0 | 1.0 | 0.00 | 0.00 | 0.00 | 87 | 1022.9 |
| 20260509120007 | 51 | 1 | 0.0 | 1.0 | 0.00 | 0.00 | 0.00 | 87 | 1022.9 |
| 20260509114505 | 51 | 331 | 1.0 | 2.0 | 0.00 | 0.00 | 0.00 | 87 | 1022.9 |
| 20260509114005 | 51 | 314 | 1.0 | 2.0 | 0.00 | 0.00 | 0.00 | 87 | 1022.9 |
| 20260509113504 | 51 | 340 | 1.0 | 2.0 | 0.00 | 0.00 | 0.00 | 87 | 1022.9 |
| 20260509113005 | 51 | 331 | 1.0 | 2.0 | 0.00 | 0.00 | 0.00 | 87 | 1022.9 |
| 20260509112505 | 51 | 1 | 0.0 | 1.0 | 0.00 | 0.00 | 0.00 | 87 | 1022.9 |
| 20260509112005 | 51 | 46 | 0.0 | 1.0 | 0.00 | 0.00 | 0.00 | 87 | 1023.0 |
| 20260509111505 | 51 | 46 | 0.0 | 1.0 | 0.00 | 0.00 | 0.00 | 87 | 1022.9 |
| 20260509111005 | 51 | 340 | 1.0 | 1.0 | 0.00 | 0.00 | 0.00 | 87 | 1022.9 |
| 20260509110505 | 51 | 331 | 0.0 | 1.0 | 0.00 | 0.00 | 0.00 | 87 | 1022.8 |
| 20260509110006 | 51 | 46 | 0.0 | 1.0 | 0.00 | 0.00 | 0.00 | 87 | 1022.8 |
| 20260509105504 | 51 | 314 | 0.0 | 1.0 | 0.00 | 0.00 | 0.00 | 87 | 1022.8 |
| 20260509105005 | 51 | 46 | 0.0 | 1.0 | 0.00 | 0.00 | 0.00 | 87 | 1022.9 |
| 20260509104506 | 51 | 1 | 0.0 | 1.0 | 0.00 | 0.00 | 0.00 | 87 | 1022.9 |
| 20260509104004 | 51 | 314 | 0.0 | 1.0 | 0.00 | 0.00 | 0.00 | 86 | 1022.8 |
| 20260509103505 | 51 | 1 | 0.0 | 1.0 | 0.00 | 0.00 | 0.00 | 86 | 1022.8 |
| 20260509103005 | 51 | 46 | 0.0 | 1.0 | 0.00 | 0.00 | 0.00 | 86 | 1022.8 |
| 20260509102505 | 51 | 331 | 1.0 | 1.0 | 0.00 | 0.00 | 0.00 | 86 | 1022.8 |
| 20260509102004 | 51 | 269 | 0.0 | 2.0 | 0.00 | 0.00 | 0.00 | 86 | 1022.7 |
| 20260509101505 | 51 | 331 | 0.0 | 2.0 | 0.00 | 0.00 | 0.00 | 86 | 1022.7 |
| 20260509100502 | 51 | 46 | 0.0 | 1.0 | 0.00 | 0.00 | 0.00 | 86 | 1022.6 |
| 20260509095505 | 50 | 331 | 0.0 | 1.0 | 0.00 | 0.00 | 0.00 | 87 | 1022.6 |
| 20260509095005 | 50 | 269 | 0.0 | 1.0 | 0.00 | 0.00 | 0.00 | 87 | 1022.6 |
| 20260509094505 | 50 | 314 | 1.0 | 1.0 | 0.00 | 0.00 | 0.00 | 87 | 1022.5 |
| 20260509094005 | 50 | 314 | 0.0 | 1.0 | 0.00 | 0.00 | 0.00 | 88 | 1022.5 |
| 20260509093506 | 50 | 28 | 0.0 | 1.0 | 0.00 | 0.00 | 0.00 | 89 | 1022.6 |
| 20260509093005 | 50 | 1 | 0.0 | 1.0 | 0.00 | 0.00 | 0.00 | 88 | 1022.5 |
| 20260509092504 | 50 | 295 | 0.0 | 1.0 | 0.00 | 0.00 | 0.00 | 88 | 1022.6 |
| 20260509092004 | 50 | 1 | 0.0 | 1.0 | 0.00 | 0.00 | 0.00 | 88 | 1022.5 |
| 20260509091505 | 50 | 46 | 0.0 | 1.0 | 0.00 | 0.00 | 0.00 | 88 | 1022.6 |
| 20260509091004 | 50 | 46 | 0.0 | 1.0 | 0.00 | 0.00 | 0.00 | 88 | 1022.6 |
| 20260509090506 | 49 | 46 | 0.0 | 1.0 | 0.00 | 0.00 | 0.00 | 88 | 1022.6 |
| 20260509090007 | 49 | 1 | 0.0 | 1.0 | 0.00 | 0.00 | 0.00 | 88 | 1022.7 |
| 20260509085504 | 49 | 360 | 0.0 | 1.0 | 0.00 | 0.00 | 0.00 | 88 | 1022.7 |
| 20260509085007 | 49 | 314 | 0.0 | 1.0 | 0.00 | 0.00 | 0.00 | 88 | 1022.7 |
| 20260509084006 | 49 | 324 | 1.0 | 2.0 | 0.00 | 0.00 | 0.00 | 88 | 1022.8 |
| 20260509083505 | 49 | 331 | 0.0 | 2.0 | 0.00 | 0.00 | 0.00 | 88 | 1022.8 |
| 20260509083005 | 49 | 296 | 1.0 | 1.0 | 0.00 | 0.00 | 0.00 | 88 | 1022.9 |
| 20260509082506 | 48 | 340 | 1.0 | 2.0 | 0.00 | 0.00 | 0.00 | 87 | 1022.9 |
| 20260509082005 | 48 | 324 | 1.0 | 2.0 | 0.00 | 0.00 | 0.00 | 87 | 1022.9 |
| 20260509081505 | 49 | 1 | 1.0 | 2.0 | 0.00 | 0.00 | 0.00 | 87 | 1022.8 |
| 20260509081005 | 49 | 331 | 1.0 | 2.0 | 0.00 | 0.00 | 0.00 | 86 | 1022.8 |
| 20260509080504 | 49 | 336 | 1.0 | 2.0 | 0.00 | 0.00 | 0.00 | 86 | 1022.8 |
| 20260509080007 | 49 | 314 | 1.0 | 2.0 | 0.00 | 0.00 | 0.00 | 85 | 1022.9 |
| 20260509075505 | 49 | 296 | 1.0 | 2.0 | 0.00 | 0.00 | 0.00 | 85 | 1022.9 |
| 20260509075005 | 50 | 331 | 1.0 | 2.0 | 0.00 | 0.00 | 0.00 | 84 | 1022.9 |
| 20260509074504 | 50 | 331 | 1.0 | 2.0 | 0.00 | 0.00 | 0.00 | 84 | 1022.8 |
| 20260509074005 | 50 | 347 | 1.0 | 2.0 | 0.00 | 0.00 | 0.00 | 83 | 1022.9 |
| 20260509073504 | 51 | 314 | 0.0 | 1.0 | 0.00 | 0.00 | 0.00 | 83 | 1022.9 |
| 20260509073005 | 51 | 1 | 0.0 | 1.0 | 0.00 | 0.00 | 0.00 | 82 | 1022.8 |
| 20260509072505 | 51 | 331 | 1.0 | 1.0 | 0.00 | 0.00 | 0.00 | 82 | 1022.8 |
| 20260509072005 | 52 | 1 | 1.0 | 2.0 | 0.00 | 0.00 | 0.00 | 82 | 1022.8 |
| 20260509071506 | 52 | 35 | 1.0 | 1.0 | 0.00 | 0.00 | 0.00 | 80 | 1022.6 |
| 20260509071004 | 53 | 117 | 0.0 | 1.0 | 0.00 | 0.00 | 0.00 | 79 | 1022.4 |
| 20260509070504 | 53 | 314 | 0.0 | 1.0 | 0.00 | 0.00 | 0.00 | 78 | 1022.5 |
| 20260509070011 | 53 | 296 | 0.0 | 1.0 | 0.00 | 0.00 | 0.00 | 78 | 1022.6 |
| 20260509065505 | 53 | 46 | 0.0 | 2.0 | 0.00 | 0.00 | 0.00 | 78 | 1022.5 |
| 20260509064005 | 54 | 28 | 0.0 | 2.0 | 0.00 | 0.00 | 0.00 | 76 | 1022.6 |
| 20260509062505 | 54 | 124 | 0.0 | 2.0 | 0.00 | 0.00 | 0.00 | 75 | 1022.6 |
| 20260509062006 | 54 | 89 | 1.0 | 2.0 | 0.00 | 0.00 | 0.00 | 75 | 1022.5 |
| 20260509061505 | 54 | 108 | 0.0 | 3.0 | 0.00 | 0.00 | 0.00 | 75 | 1022.6 |
| 20260509061006 | 54 | 89 | 1.0 | 3.0 | 0.00 | 0.00 | 0.00 | 75 | 1022.6 |
| 20260509060505 | 54 | 72 | 1.0 | 3.0 | 0.00 | 0.00 | 0.00 | 75 | 1022.6 |
| 20260509060007 | 54 | 124 | 1.0 | 3.0 | 0.00 | 0.00 | 0.00 | 75 | 1022.6 |
| 20260509055506 | 54 | 89 | 1.0 | 2.0 | 0.00 | 0.00 | 0.00 | 74 | 1022.6 |
| 20260509055005 | 54 | 286 | 0.0 | 2.0 | 0.00 | 0.00 | 0.00 | 74 | 1022.5 |
| 20260509054506 | 54 | 331 | 0.0 | 3.0 | 0.00 | 0.00 | 0.00 | 74 | 1022.5 |
| 20260509053506 | 54 | 46 | 0.0 | 2.0 | 0.00 | 0.00 | 0.00 | 72 | 1022.6 |
| 20260509053007 | 54 | 46 | 0.0 | 2.0 | 0.00 | 0.00 | 0.00 | 73 | 1022.6 |
| 20260509052006 | 54 | 105 | 1.0 | 3.0 | 0.00 | 0.00 | 0.00 | 72 | 1022.5 |
| 20260509051505 | 54 | 223 | 1.0 | 3.0 | 0.00 | 0.00 | 0.00 | 72 | 1022.5 |
| 20260509051005 | 54 | 152 | 1.0 | 2.0 | 0.00 | 0.00 | 0.00 | 72 | 1022.5 |
| 20260509050506 | 54 | 108 | 1.0 | 3.0 | 0.00 | 0.00 | 0.00 | 71 | 1022.6 |
| 20260509050008 | 54 | 122 | 2.0 | 3.0 | 0.00 | 0.00 | 0.00 | 71 | 1022.5 |
| 20260509045505 | 54 | 148 | 1.0 | 5.0 | 0.00 | 0.00 | 0.00 | 72 | 1022.6 |
| 20260509045006 | 54 | 124 | 2.0 | 5.0 | 0.00 | 0.00 | 0.00 | 72 | 1022.5 |
| 20260509044506 | 54 | 213 | 1.0 | 4.0 | 0.00 | 0.00 | 0.00 | 71 | 1022.6 |
| 20260509044006 | 54 | 89 | 2.0 | 4.0 | 0.00 | 0.00 | 0.00 | 71 | 1022.5 |
| 20260509043505 | 54 | 178 | 1.0 | 4.0 | 0.00 | 0.00 | 0.00 | 72 | 1022.4 |
| 20260509043007 | 54 | 145 | 1.0 | 5.0 | 0.00 | 0.00 | 0.00 | 73 | 1022.4 |
| 20260509042506 | 54 | 152 | 1.0 | 5.0 | 0.00 | 0.00 | 0.00 | 73 | 1022.4 |
| 20260509041505 | 54 | 145 | 1.0 | 4.0 | 0.00 | 0.00 | 0.00 | 72 | 1022.4 |
| 20260509041006 | 54 | 135 | 1.0 | 4.0 | 0.00 | 0.00 | 0.00 | 73 | 1022.4 |
| 20260509040506 | 54 | 129 | 1.0 | 5.0 | 0.00 | 0.00 | 0.00 | 73 | 1022.3 |
| 20260509040007 | 54 | 171 | 2.0 | 5.0 | 0.00 | 0.00 | 0.00 | 73 | 1022.3 |
| 20260509035505 | 54 | 229 | 2.0 | 4.0 | 0.00 | 0.00 | 0.00 | 73 | 1022.3 |
| 20260509035005 | 54 | 218 | 2.0 | 3.0 | 0.00 | 0.00 | 0.00 | 73 | 1022.2 |
| 20260509034505 | 54 | 135 | 1.0 | 3.0 | 0.00 | 0.00 | 0.00 | 74 | 1022.2 |
| 20260509033505 | 54 | 89 | 1.0 | 3.0 | 0.00 | 0.00 | 0.00 | 73 | 1022.2 |
| 20260509033007 | 54 | 241 | 1.0 | 3.0 | 0.00 | 0.00 | 0.00 | 73 | 1022.1 |
| 20260509032005 | 55 | 148 | 1.0 | 3.0 | 0.00 | 0.00 | 0.00 | 73 | 1022.0 |
| 20260509031506 | 55 | 135 | 1.0 | 3.0 | 0.00 | 0.00 | 0.00 | 72 | 1022.0 |
| 20260509031006 | 55 | 89 | 2.0 | 5.0 | 0.00 | 0.00 | 0.00 | 71 | 1022.0 |
| 20260509030505 | 55 | 1 | 2.0 | 8.0 | 0.00 | 0.00 | 0.00 | 72 | 1022.0 |
| 20260509025505 | 55 | 117 | 2.0 | 5.0 | 0.00 | 0.00 | 0.00 | 72 | 1021.9 |
| 20260509025005 | 56 | 122 | 2.0 | 4.0 | 0.00 | 0.00 | 0.00 | 71 | 1021.8 |
| 20260509024505 | 56 | 206 | 1.0 | 8.0 | 0.00 | 0.00 | 0.00 | 71 | 1021.9 |
| 20260509024005 | 56 | 82 | 3.0 | 8.0 | 0.00 | 0.00 | 0.00 | 70 | 1021.8 |
| 20260509023504 | 56 | 125 | 2.0 | 6.0 | 0.00 | 0.00 | 0.00 | 70 | 1021.7 |
| 20260509022507 | 56 | 148 | 2.0 | 6.0 | 0.00 | 0.00 | 0.00 | 70 | 1021.7 |
| 20260509022005 | 56 | 291 | 2.0 | 6.0 | 0.00 | 0.00 | 0.00 | 70 | 1021.7 |
| 20260509021507 | 56 | 129 | 2.0 | 7.0 | 0.00 | 0.00 | 0.00 | 69 | 1021.6 |
| 20260509021005 | 56 | 142 | 2.0 | 7.0 | 0.00 | 0.00 | 0.00 | 69 | 1021.7 |
| 20260509020504 | 56 | 124 | 3.0 | 6.0 | 0.00 | 0.00 | 0.00 | 69 | 1021.7 |
| 20260509020007 | 57 | 107 | 2.0 | 7.0 | 0.00 | 0.00 | 0.00 | 68 | 1021.8 |
| 20260509015504 | 57 | 108 | 2.0 | 7.0 | 0.00 | 0.00 | 0.00 | 68 | 1021.7 |
| 20260509015005 | 57 | 117 | 1.0 | 6.0 | 0.00 | 0.00 | 0.00 | 69 | 1021.8 |
| 20260509014506 | 57 | 324 | 2.0 | 6.0 | 0.00 | 0.00 | 0.00 | 68 | 1021.8 |
| 20260509014006 | 57 | 186 | 2.0 | 5.0 | 0.00 | 0.00 | 0.00 | 68 | 1021.7 |
| 20260509013005 | 57 | 186 | 2.0 | 6.0 | 0.00 | 0.00 | 0.00 | 68 | 1021.7 |
| 20260509012507 | 57 | 178 | 2.0 | 6.0 | 0.00 | 0.00 | 0.00 | 67 | 1021.8 |
| 20260509012005 | 57 | 123 | 3.0 | 7.0 | 0.00 | 0.00 | 0.00 | 66 | 1021.6 |
| 20260509011506 | 57 | 132 | 3.0 | 7.0 | 0.00 | 0.00 | 0.00 | 66 | 1021.6 |
| 20260509011006 | 57 | 89 | 1.0 | 7.0 | 0.00 | 0.00 | 0.00 | 68 | 1021.7 |
| 20260509010505 | 57 | 202 | 3.0 | 7.0 | 0.00 | 0.00 | 0.00 | 67 | 1021.6 |
| 20260509010006 | 57 | 124 | 2.0 | 9.0 | 0.00 | 0.00 | 0.00 | 67 | 1021.6 |
| 20260509005506 | 57 | 128 | 3.0 | 8.0 | 0.00 | 0.00 | 0.00 | 67 | 1021.6 |
| 20260509005005 | 57 | 193 | 3.0 | 9.0 | 0.00 | 0.00 | 0.00 | 68 | 1021.6 |
| 20260509004506 | 57 | 100 | 2.0 | 8.0 | 0.00 | 0.00 | 0.00 | 68 | 1021.5 |
| 20260509004005 | 57 | 286 | 2.0 | 8.0 | 0.00 | 0.00 | 0.00 | 66 | 1021.5 |
| 20260509003504 | 58 | 329 | 2.0 | 7.0 | 0.00 | 0.00 | 0.00 | 65 | 1021.6 |
| 20260509003005 | 58 | 135 | 2.0 | 6.0 | 0.00 | 0.00 | 0.00 | 66 | 1021.5 |
| 20260509001005 | 56 | 135 | 4.0 | 9.0 | 0.00 | 0.00 | 0.00 | 67 | 1021.7 |
| 20260509000505 | 57 | 131 | 3.0 | 12.0 | 0.00 | 0.00 | 0.00 | 67 | 1021.6 |
| 20260509000008 | 57 | 131 | 3.0 | 8.0 | 0.00 | 0.00 | 0.00 | 67 | 1021.6 |